Location: Lombard
(41.8800°N, 88.0080°W)
Time: 13:36:10
(UTC-05:00)

A-11 Canister half - Pass Details

Date: 30 January 2023
Orbit: 1512 x 1687 km, 47.2° (Epoch: 20 March)

Event Time Altitude Azimuth Distance (km) Brightness Sun altitude
Rises 15:55:33 0° 287° (WNW) 4,736 12.2 10.4°
Reaches altitude 10° 15:58:41 10° 290° (WNW) 3,731 11.6 9.9°
Maximum altitude 16:08:04 71° 14° (NNE) 1,597 9.1 8.4°
Drops below altitude 10° 16:17:16 10° 99° (E) 3,668 10.6 7.0°
Sets 16:20:19 0° 101° (ESE) 4,652 11.1 6.5°
